Location: Cabeza Gorda
(40.0667°N, 4.9667°W)
Time: 19:18:40
(UTC+00:00)

Cosmos 2082 Rocket - Pass Details

Date: 15 January 2026
Orbit: 832 x 853 km, 71.0° (Epoch: 11 February)

Event Time Altitude Azimuth Distance (km) Brightness Sun altitude
Exits shadow 06:36:24 - 338° (NNW) 3,261 4.9 -12.1°
Reaches altitude 10° 06:38:29 10° 340° (NNW) 2,471 4.3 -11.7°
Maximum altitude 06:44:09 76° 66° (ENE) 877 2.4 -10.7°
Drops below altitude 10° 06:49:50 10° 152° (SSE) 2,469 5.4 -9.7°
Sets 06:52:17 0° 154° (SSE) 3,402 6.1 -9.2°
